Regional Weather Roundup
Issued by NWS Sterling, VA

Home | Current Version | Previous Version | Graphics & Text | Print | Product List | Glossary On
Versions: 1 2 3 4 5 6 7 8 9 10 11 12 13 14 15 16 17 18 19 20 21 22 23 24 25 26 27 28 29 30 31 32 33 34 35 36 37 38 39 40 41 42 43 44 45 46 47 48 49 50
000
ASUS41 KLWX 220510
RWRLWX

REGIONAL WEATHER ROUNDUP
NATIONAL WEATHER SERVICE BALTIMORE MD/WASHINGTON DC
1200 AM EST MON DEC 22 2014

Note: "FAIR" indicates few or no clouds below 12,000 feet
with no significant weather and/or obstructions to visibility.
 TC=TEMPERATURE CELSIUS

 * =Non NWS site. Station does not report precipitation (e.g. rain,
    snow, etc.), thunder, or fog.

DCZ001-MDZ009-015-VAZ040>042-051-053>054-220600-
WASHINGTON METRO

CITY           SKY/WX    TMP DP  RH WIND       PRES   REMARKS
WASHINGTON NAT MOCLDY    34  25  69 NE5       30.34F
DULLES         MOCLDY    28  22  78 CALM      30.32F
ANDREWS AFB    PTCLDY    27  22  82 CALM      30.31F
FT BELVOIR     CLEAR     26  22  87 SW1       30.34F
QUANTICO       PTCLDY    29  25  85 NW6       30.35S
COLLEGE PARK*  PTCLDY    27  25  93 CALM      30.33F
LEESBURG*      CLEAR     30  27  86 CALM      30.33F
MANASSAS*      PTCLDY    25  25 100 CALM      30.33S
GAITHERSBURG*  CLEAR     25  19  80 CALM      30.35F

$$

MDZ006>007-011-014-220600-
BALTIMORE METRO

CITY           SKY/WX    TMP DP  RH WIND       PRES   REMARKS
BWI AIRPORT    PTCLDY    27  22  81 CALM      30.32F
MD SCIENCE CTR   N/A     33  23  66 MISG      30.33F
MARTIN STATE   CLEAR     28  27  93 CALM      30.35F
ANNAPOLIS      CLEAR     31  26  82 CALM      30.33F
FORT MEADE*    CLEAR     25  23  93 CALM      30.35F

$$

MDZ012-015-019>023-220600-
MARYLAND EASTERN SHORE

CITY           SKY/WX    TMP DP  RH WIND       PRES   REMARKS
OCEAN CITY     MOCLDY    28  25  88 N3        30.32S FOG
SALISBURY      MOCLDY    30  24  78 CALM      30.32F HAZE
BAY BRIDGE AP*   N/A     32  27  80 CALM      30.33F
CAMBRIDGE*     PTCLDY    32  27  80 N5        30.31F
EASTON*        PTCLDY    28  26  89 CALM      30.36F

$$

MDZ017>025-220600-
SOUTHERN MARYLAND

CITY           SKY/WX    TMP DP  RH WIND       PRES   REMARKS
PATUXENT RIVER MOCLDY    32  25  75 E5        30.32F
ST INIGOES     CLOUDY    31  25  78 NE3       30.31F
LEONARDTOWN*   CLOUDY    30  28  93 CALM      30.33S

$$

MDZ003>005-220600-
NORTH CENTRAL MARYLAND

CITY           SKY/WX    TMP DP  RH WIND       PRES   REMARKS
FREDERICK*     CLEAR     27  19  74 NE3       30.36F
HAGERSTOWN APT CLEAR     26  19  74 CALM      30.30F
WESTMINSTER*   PTCLDY    25  19  80 CALM      30.29F

$$

MDZ501>502-220600-
WESTERN MARYLAND

CITY           SKY/WX    TMP DP  RH WIND       PRES   REMARKS
OAKLAND*       PTCLDY    23 N/A N/A SE14      30.12F WCI  11
CUMBERLAND*    PTCLDY    30  27  86 NW3       30.31F

$$

VAZ025>031-220600-
SHENANDOAH VALLEY

CITY           SKY/WX    TMP DP  RH WIND       PRES   REMARKS
WINCHESTER*    PTCLDY    28  21  74 CALM      30.28F
FRONT ROYAL*   FAIR      28  23  80 CALM      30.28S
LURAY*         FAIR      28  28 100 S3        30.27S
NEW MARKET*    FAIR      23  21  92 CALM      30.27S
STAUNTON*      CLOUDY    30  26  86 CALM      30.26F
WAYNESBORO*    CLOUDY    34  26  73 SE8       30.24S WCI  27

$$

WVZ021-048>050-054>055-220600-
EASTERN WEST VIRGINIA PANHANDLE

CITY           SKY/WX    TMP DP  RH WIND       PRES   REMARKS
MARTINSBURG    PTCLDY    26  19  74 CALM      30.30F
PETERSBURG*    PTCLDY    24  23  96 CALM      30.27S FOG

$$

VAZ036>039-050-220600-
CENTRAL FOOTHILLS

CITY           SKY/WX    TMP DP  RH WIND       PRES   REMARKS
CHARLOTTESVILL CLOUDY    33  26  75 CALM      30.29F
CULPEPER*      PTCLDY    23  21  93 CALM      30.32R
ORANGE*        CLOUDY    28  28 100 CALM      30.31F
GORDONSVILLE*  CLOUDY    29  26  89 CALM      30.30F
WARRENTON*     FAIR      23  23 100 CALM      30.31S

$$

VAZ055>057-220600-
NORTH AND CENTRAL PIEDMONT

CITY           SKY/WX    TMP DP  RH WIND       PRES   REMARKS
FREDERICKSBRG* MOCLDY    29  26  90 CALM      30.32S
STAFFORD*      PTCLDY    26  26 100 CALM      30.37R

$$

NCZ024-NYZ072-PAZ021-071-VAZ022-071-220600-
OTHER REGIONAL OBSERVATIONS

CITY           SKY/WX    TMP DP  RH WIND       PRES   REMARKS
NEW YORK CITY  CLOUDY    35  29  78 VRB6      30.35S
PHILADELPHIA   PTCLDY    30  22  72 NW6       30.35S
PITTSBURGH     PTCLDY    26  21  81 E5        30.17F
ROANOKE        CLOUDY    39  29  67 E8        30.27R
RICHMOND       CLOUDY    35  28  75 NE3       30.30F
RALEIGH        CLOUDY    41  33  73 NE6       30.23F

$$

ANZ530>537-220600-
MARINE OBSERVATIONS

STATION/POSITION TIME  TEMP    WIND        PRES
                       AIR SEA DIR/SP/G
                 (UTC) (F)     (DEG/KT/KT) (MB)
THOMAS PT LIGHT  0500   34 40   60/  7/  8 1028.0F
BALT KEY BRIDGE  0500   32      20/  4/  5 1027.3F
COVE POINT       0500   34      60/ 11/ 11 1026.4F
LEWISETTA        0500   38 41   60/  6/  8 1026.2S
SOLOMONS ISLAND  0500      42                N/A

$$



USA.gov is the U.S. government's official web portal to all federal, state and local government web resources and services.